Wind_Speed
43 46 45 48 49 48 49 50 51 51 50 50 49 48 47 46 48 48 48 49 50 52 53 55 55 56 57 58 59 61 62 64 65 65 61 59 60 61 56 52 48 45 44
48 48 52 54 55 56 56 57 57 57 56 54 52 50 48 47 47 47 49 48 50 52 52 54 55 57 59 61 62 63 66 69 72 71 67 63 62 63 63 58 54 51 49
52 52 58 59 59 58 57 58 58 57 55 51 49 47 47 46 46 45 46 47 48 47 50 52 53 55 57 59 61 63 66 67 71 74 73 70 70 63 60 63 63 60 55
57 59 60 57 53 53 56 58 57 55 55 51 47 45 44 43 45 45 45 46 47 48 49 50 51 54 56 57 59 61 63 64 65 71 73 71 68 68 67 63 66 68 67
60 58 53 48 53 56 57 57 55 52 48 46 44 43 43 43 44 44 46 47 48 49 51 53 55 56 57 57 57 59 60 62 64 68 71 68 66 62 65 63 59 62 67
53 51 50 56 59 56 53 52 50 48 45 43 42 43 42 42 43 44 46 48 50 52 53 53 53 53 55 55 54 56 58 60 61 63 63 63 62 61 62 60 56 58 58
52 55 55 52 51 51 52 40 43 45 44 43 43 42 41 43 44 46 47 49 51 51 52 52 51 50 48 48 50 52 53 55 56 55 58 58 56 58 59 61 57 52 55
49 43 44 49 45 51 38 38 43 43 44 45 46 47 46 46 46 47 48 49 50 51 49 48 48 46 46 46 48 48 50 53 54 59 56 55 57 57 58 56 55 54 48
44 47 51 46 48 42 41 39 38 37 42 46 49 47 48 49 48 50 51 50 51 50 45 43 43 43 45 46 44 45 48 47 42 44 47 51 55 53 52 52 53 45 37
34 47 42 50 42 35 36 35 38 41 44 46 48 49 50 51 51 50 53 53 52 46 40 39 40 40 40 41 38 39 40 43 45 43 45 48 48 49 45 47 47 44 40
48 43 41 39 41 39 34 36 37 37 40 41 44 47 46 46 47 48 48 49 46 40 34 33 34 35 35 35 37 39 41 40 40 41 45 46 44 46 46 44 45 45 40
34 37 46 53 48 36 28 26 32 38 40 40 42 46 47 47 48 45 42 42 38 35 32 31 31 30 30 31 34 35 37 38 39 42 43 43 42 44 45 45 43 43 44
58 58 45 40 40 38 32 33 40 41 42 41 44 44 46 48 48 48 44 44 39 36 34 35 33 31 28 26 25 26 28 33 35 38 40 43 44 46 50 49 49 48 46
45 44 50 44 39 41 43 42 36 37 42 43 47 48 50 50 51 49 43 41 36 33 32 33 33 31 30 27 25 26 27 29 31 34 36 39 43 47 50 53 51 50 51
45 41 41 47 51 46 50 43 36 39 42 44 46 47 51 50 47 43 37 34 33 31 30 30 29 28 27 26 27 29 31 31 32 35 33 31 33 38 43 50 52 51 51
43 46 46 47 39 48 50 38 40 41 47 48 49 48 46 43 38 38 37 36 36 35 32 30 26 26 24 25 24 26 32 34 33 31 33 33 36 36 33 35 43 44 45
46 45 49 55 43 36 38 41 45 46 47 49 42 40 38 37 38 36 36 36 37 38 33 29 26 24 23 22 18 21 23 31 26 26 22 23 25 26 26 22 19 24 33
51 50 51 44 37 37 40 42 44 46 44 40 38 39 37 36 33 32 33 35 37 34 31 27 25 22 21 17 16 18 18 20 10 9 9 12 10 16 19 19 17 12 14
44 42 43 41 39 39 41 42 43 42 37 37 38 37 35 31 31 32 31 31 32 25 23 25 21 18 16 16 15 17 17 13 4 8 8 12 16 18 23 26 18 14 10
39 39 41 41 41 41 42 43 38 34 36 36 35 33 30 31 33 30 29 30 27 27 21 19 14 14 14 14 15 14 16 10 6 5 6 10 14 17 20 23 27 25 12
36 35 39 40 41 41 41 33 33 34 34 32 31 28 29 31 28 28 28 24 22 18 14 11 11 14 16 17 16 15 13 11 6 6 8 10 13 14 17 18 19 20 21
31 31 35 37 38 34 29 32 32 32 30 29 28 27 25 24 27 25 20 15 14 15 11 10 15 18 21 19 17 15 14 12 10 8 9 9 12 15 17 19 19 19 17
34 34 35 35 29 29 29 28 28 26 26 26 24 22 22 24 21 16 12 13 14 12 10 13 17 15 14 14 14 14 14 14 13 12 11 11 12 14 16 18 20 21 21
33 34 33 27 26 26 25 24 22 22 22 21 20 19 18 19 15 10 9 12 12 11 12 14 13 9 8 8 8 10 12 14 14 15 16 17 18 20 21 23 24 24 25
34 30 25 24 23 22 21 21 20 20 18 17 16 13 14 15 10 10 13 13 13 14 14 12 10 9 10 11 12 14 16 18 20 21 22 24 25 26 28 30 32 32 32
25 24 23 22 22 21 20 20 19 17 15 15 12 12 11 11 11 13 15 16 16 16 15 13 11 12 13 14 16 18 20 21 23 25 26 27 28 29 32 34 36 37 38
Wind_Direction
298 298 298 295 295 292 291 290 289 289 287 284 281 279 278 277 275 275 272 273 273 273 273 273 271 271 270 269 269 270 271 272 273 274 274 272 272 271 269 266 262 258 257
291 290 292 290 291 291 290 288 290 290 288 286 285 283 281 278 277 275 274 273 272 273 272 272 272 272 272 272 271 269 271 273 275 277 275 271 271 272 273 270 266 259 254
290 289 288 289 290 290 291 290 289 290 289 287 284 282 281 278 277 275 275 274 274 273 274 274 273 275 274 275 274 273 272 271 272 273 276 276 273 269 267 268 269 265 259
286 285 287 290 291 288 288 290 293 292 290 288 285 282 279 278 277 277 276 277 278 277 277 275 273 271 269 270 271 273 272 270 269 268 270 270 272 271 268 262 261 262 264
287 287 288 287 291 298 298 300 299 295 289 283 280 279 278 276 276 276 277 278 278 279 279 277 277 276 273 270 268 266 267 268 265 264 267 271 272 273 271 268 265 260 256
287 286 284 286 295 299 301 303 300 293 287 284 280 278 278 278 278 278 279 279 281 281 279 279 277 275 271 268 269 269 268 266 262 261 264 268 273 276 274 272 268 264 262
275 281 286 290 292 296 298 300 303 295 288 283 282 282 281 280 279 280 282 284 285 285 284 284 283 279 272 270 270 270 269 268 268 266 264 263 268 274 276 276 272 265 258
281 280 287 285 289 290 287 295 299 290 288 287 286 286 284 282 282 284 286 289 292 289 286 285 283 279 275 277 275 270 271 272 268 267 266 263 270 273 277 274 273 272 258
286 293 285 287 285 277 284 293 291 292 294 292 289 287 285 284 284 286 287 289 296 291 286 284 283 279 276 278 278 271 278 272 270 274 269 266 271 270 272 272 274 272 260
286 284 285 289 274 269 279 281 283 287 295 293 291 291 291 290 289 290 287 289 295 290 287 284 284 283 282 279 272 276 274 275 276 277 277 273 273 270 270 270 271 270 266
278 282 278 287 276 263 268 278 284 289 292 294 295 293 291 291 290 292 293 294 291 288 286 287 291 289 285 279 273 273 276 279 279 279 277 278 277 271 274 277 273 268 267
264 264 271 277 279 266 275 285 301 300 296 294 293 293 294 294 295 295 296 294 291 286 283 285 289 289 289 283 279 277 276 277 277 274 276 276 274 274 273 272 271 267 266
265 276 277 277 289 276 271 295 298 301 300 296 294 296 300 299 295 294 294 294 294 289 284 282 284 286 289 289 287 287 286 281 279 276 275 275 274 271 270 273 272 270 265
267 278 277 290 283 271 292 305 303 300 298 299 293 294 300 300 295 293 294 294 295 293 287 283 283 284 290 296 300 305 307 303 300 291 283 280 277 273 271 269 269 265 264
288 287 284 280 279 276 295 301 305 302 302 300 296 298 298 296 293 292 292 293 297 298 296 288 282 283 285 295 300 307 310 310 309 309 306 306 295 281 276 271 265 261 257
284 282 287 282 286 280 289 297 297 299 303 304 302 299 295 292 288 292 296 296 296 295 292 290 280 276 283 287 293 299 299 300 303 299 303 310 315 315 303 277 263 257 253
278 275 279 287 285 295 297 296 295 296 298 300 298 294 292 290 292 293 295 297 297 293 289 281 273 274 273 277 290 298 292 288 292 293 295 314 323 338 337 328 286 260 254
280 280 283 287 291 287 289 291 293 296 298 297 294 293 293 291 290 293 297 300 301 288 276 269 267 265 261 269 280 289 291 283 298 307 296 351 329 3 17 4 352 314 272
280 281 281 282 284 285 288 292 294 295 294 293 293 292 290 287 292 291 292 296 300 283 271 260 244 243 257 266 274 279 292 280 280 326 352 8 21 5 15 23 25 1 315
277 278 284 287 289 289 290 291 291 290 291 292 292 292 286 287 291 289 288 293 292 280 268 232 233 252 261 268 275 277 290 285 286 310 360 13 9 8 12 12 11 15 8
282 281 281 282 284 286 286 288 286 289 291 292 291 289 288 292 292 288 291 291 289 286 235 230 253 264 273 277 277 275 272 270 268 316 342 360 359 1 360 4 3 2 359
286 281 284 290 288 284 285 284 288 290 290 289 290 291 292 292 286 290 288 284 245 234 236 263 273 280 281 278 273 273 268 270 283 301 314 336 343 346 350 352 351 348 346
284 289 291 288 285 283 284 287 288 288 288 288 291 292 290 285 290 281 281 245 237 243 280 289 288 283 278 272 268 268 268 273 279 291 303 318 324 327 331 332 333 334 333
290 290 286 283 279 282 286 287 285 286 288 289 291 289 282 284 277 275 258 246 256 271 285 287 286 290 301 292 283 284 287 289 293 302 305 308 312 314 313 312 312 314 317
290 283 280 278 281 281 284 282 282 284 287 288 285 279 276 267 265 261 251 254 266 278 281 286 299 316 317 314 314 316 317 314 310 307 307 307 306 307 308 308 308 308 308
280 277 277 278 279 278 277 283 280 283 279 276 275 266 256 242 237 246 249 259 274 286 284 288 293 294 294 295 301 303 305 306 307 305 303 302 304 306 308 306 305 306 306
Height
5770 5768 5766 5763 5761 5760 5758 5756 5753 5752 5750 5747 5744 5741 5738 5737 5735 5736 5731 5733 5730 5730 5730 5729 5725 5724 5722 5722 5722 5721 5718 5715 5712 5711 5717 5720 5723 5726 5730 5732 5736 5741 5745
5764 5763 5756 5753 5751 5749 5747 5744 5741 5738 5735 5733 5731 5729 5727 5724 5721 5720 5717 5718 5716 5717 5717 5715 5712 5711 5709 5709 5708 5708 5704 5701 5695 5693 5696 5705 5708 5711 5712 5716 5720 5724 5729
5752 5751 5745 5742 5738 5736 5734 5732 5729 5726 5722 5719 5716 5714 5713 5710 5708 5707 5705 5704 5702 5703 5702 5700 5698 5696 5694 5694 5693 5692 5691 5689 5683 5680 5676 5679 5686 5692 5696 5699 5702 5707 5713
5740 5738 5734 5730 5726 5724 5722 5719 5716 5714 5710 5707 5704 5702 5700 5698 5695 5693 5691 5690 5688 5689 5687 5685 5683 5681 5679 5677 5676 5675 5674 5672 5670 5662 5661 5661 5663 5668 5676 5684 5688 5689 5693
5728 5726 5723 5721 5714 5711 5709 5705 5703 5700 5697 5694 5692 5689 5687 5685 5683 5680 5678 5675 5673 5672 5670 5668 5665 5662 5661 5659 5658 5656 5655 5654 5653 5651 5646 5642 5646 5647 5651 5661 5667 5671 5675
5713 5713 5712 5709 5704 5699 5696 5693 5690 5688 5685 5682 5680 5677 5675 5672 5670 5668 5665 5662 5659 5656 5654 5651 5649 5646 5643 5641 5640 5639 5638 5637 5636 5636 5634 5632 5631 5631 5632 5638 5649 5649 5654
5701 5701 5700 5699 5693 5689 5686 5683 5680 5678 5676 5672 5669 5667 5664 5661 5658 5655 5653 5649 5645 5641 5638 5635 5632 5630 5628 5627 5625 5623 5621 5620 5619 5620 5621 5621 5620 5619 5617 5618 5625 5632 5637
5694 5691 5688 5688 5683 5678 5675 5673 5670 5667 5666 5663 5659 5656 5652 5649 5646 5643 5640 5636 5632 5628 5624 5621 5618 5614 5613 5612 5610 5609 5607 5606 5605 5604 5604 5606 5607 5605 5604 5603 5605 5610 5617
5680 5678 5672 5672 5671 5667 5665 5662 5659 5657 5655 5653 5649 5645 5642 5638 5634 5631 5627 5623 5619 5616 5612 5608 5605 5602 5600 5598 5597 5596 5595 5593 5592 5591 5590 5590 5591 5591 5591 5591 5591 5593 5598
5663 5666 5662 5660 5658 5655 5653 5652 5649 5647 5644 5641 5639 5635 5631 5627 5623 5619 5615 5611 5607 5603 5600 5596 5593 5591 5588 5586 5585 5584 5583 5582 5580 5578 5577 5578 5578 5578 5577 5578 5578 5579 5583
5658 5656 5651 5648 5645 5643 5640 5639 5637 5635 5634 5630 5628 5624 5621 5617 5613 5607 5603 5598 5594 5592 5589 5586 5583 5580 5577 5575 5574 5573 5571 5570 5568 5567 5566 5565 5564 5564 5564 5564 5565 5568 5570
5646 5645 5644 5642 5638 5634 5629 5626 5626 5625 5623 5621 5616 5614 5610 5605 5601 5596 5591 5587 5584 5581 5579 5577 5575 5572 5570 5567 5565 5563 5561 5560 5557 5557 5555 5554 5553 5552 5552 5551 5552 5554 5557
5635 5635 5634 5629 5627 5623 5618 5612 5613 5614 5613 5608 5606 5602 5598 5594 5590 5585 5580 5576 5574 5571 5569 5567 5565 5564 5562 5559 5557 5555 5552 5550 5548 5546 5544 5542 5541 5539 5538 5538 5539 5541 5543
5625 5625 5624 5621 5619 5617 5606 5603 5603 5602 5598 5595 5594 5590 5586 5582 5579 5574 5570 5566 5563 5561 5559 5557 5556 5554 5552 5551 5549 5546 5543 5541 5537 5534 5532 5530 5528 5525 5523 5523 5523 5526 5528
5614 5614 5611 5608 5605 5602 5596 5594 5593 5591 5587 5585 5582 5577 5575 5572 5568 5563 5560 5556 5554 5552 5550 5549 5547 5545 5545 5544 5542 5539 5536 5533 5531 5527 5522 5518 5514 5511 5507 5505 5506 5508 5511
5604 5601 5598 5597 5596 5591 5588 5586 5584 5579 5576 5573 5568 5566 5564 5561 5557 5553 5551 5547 5546 5544 5542 5540 5539 5538 5538 5537 5536 5534 5531 5528 5526 5522 5517 5511 5504 5498 5490 5486 5486 5490 5494
5592 5589 5587 5585 5585 5581 5578 5575 5572 5570 5565 5563 5558 5557 5554 5551 5547 5544 5541 5538 5535 5534 5532 5531 5531 5531 5531 5531 5530 5528 5526 5523 5520 5516 5513 5507 5501 5495 5486 5478 5476 5477 5480
5581 5579 5576 5574 5572 5570 5567 5565 5562 5558 5555 5552 5549 5547 5543 5541 5538 5535 5532 5529 5525 5523 5522 5522 5523 5524 5524 5524 5524 5523 5521 5518 5514 5511 5507 5503 5499 5494 5488 5481 5475 5473 5473
5569 5568 5566 5563 5561 5559 5557 5553 5550 5548 5545 5543 5540 5537 5534 5531 5529 5526 5524 5521 5518 5515 5514 5515 5516 5517 5518 5518 5518 5517 5515 5513 5509 5507 5502 5499 5495 5491 5486 5482 5478 5474 5472
5560 5558 5554 5552 5550 5547 5545 5543 5541 5539 5537 5534 5530 5527 5525 5523 5521 5518 5516 5514 5511 5509 5509 5509 5510 5510 5511 5511 5511 5510 5509 5507 5505 5503 5499 5496 5493 5489 5485 5481 5478 5475 5471
5548 5547 5545 5543 5541 5538 5536 5534 5533 5530 5528 5525 5522 5520 5518 5515 5512 5510 5508 5506 5505 5504 5505 5505 5505 5505 5505 5504 5504 5503 5503 5503 5501 5499 5496 5493 5490 5488 5485 5481 5479 5476 5473
5540 5539 5536 5533 5531 5528 5527 5525 5524 5521 5519 5518 5516 5513 5510 5508 5505 5503 5502 5501 5501 5502 5501 5501 5501 5501 5500 5499 5498 5498 5497 5497 5496 5494 5492 5489 5487 5485 5482 5480 5477 5476 5474
5531 5529 5526 5524 5522 5521 5519 5518 5516 5514 5513 5511 5509 5506 5504 5501 5500 5499 5498 5499 5499 5499 5498 5498 5497 5496 5495 5494 5493 5493 5493 5492 5491 5489 5487 5485 5483 5481 5479 5477 5474 5472 5470
5523 5520 5518 5516 5515 5514 5512 5510 5509 5508 5506 5504 5502 5500 5498 5496 5496 5497 5497 5497 5497 5496 5495 5494 5493 5492 5490 5490 5490 5489 5488 5487 5485 5483 5481 5479 5477 5475 5473 5471 5469 5466 5464
5514 5511 5510 5509 5508 5506 5505 5504 5503 5501 5500 5498 5497 5495 5495 5494 5494 5495 5495 5495 5494 5493 5491 5490 5489 5486 5486 5485 5484 5483 5482 5480 5479 5477 5475 5472 5470 5468 5465 5463 5460 5458 5455
5505 5504 5504 5502 5501 5500 5499 5498 5497 5496 5495 5494 5492 5492 5492 5492 5491 5491 5492 5492 5491 5489 5488 5486 5484 5483 5482 5481 5480 5478 5477 5474 5472 5470 5468 5466 5463 5460 5457 5454 5451 5448 5445